Globalstar
NORAD ID: 25678
Int'l Code: 1999-019C
Perigee: 1,727.5 km
Apogee: 1,737.3 km
Inclination: 52.0 °
Period: 121.0 minutes
Semi major axis: 8103 km
Launch date: April 15, 1999
Source: Globalstar (GLOB)
Two Line Element Set (TLE):
1 25678U 99019C 13166.13350339 -.00000070 00000-0 19051-3 0 1630
2 25678 051.9949 146.8879 0006018 225.1752 214.2892 11.90146208649165
Source: AFSPC
NASA's NSSDC Master Catalog entry for GLOBALSTAR M044